TimeEDT,TemperatureF,Dew PointF,Humidity,Sea Level PressureIn,VisibilityMPH,Wind Direction,Wind SpeedMPH,Gust SpeedMPH,PrecipitationIn,Events,Conditions,WindDirDegrees,DateUTC
12:54 AM,45.0,25.0,46,29.89,10.0,SSW,6.9,-,N/A,,Clear,200,2014-03-15 04:54:00
1:54 AM,46.0,26.1,46,29.87,10.0,Variable,6.9,-,N/A,,Clear,0,2014-03-15 05:54:00
2:54 AM,46.0,27.0,47,29.85,10.0,South,5.8,-,N/A,,Overcast,190,2014-03-15 06:54:00
4:54 AM,48.0,26.1,42,29.80,10.0,SSW,11.5,19.6,N/A,,Overcast,210,2014-03-15 08:54:00
5:54 AM,48.9,26.1,41,29.81,10.0,SSW,8.1,-,N/A,,Overcast,210,2014-03-15 09:54:00
6:54 AM,48.0,26.1,42,29.81,10.0,SSW,9.2,-,N/A,,Clear,210,2014-03-15 10:54:00
7:54 AM,48.9,27.0,43,29.82,10.0,SW,8.1,-,N/A,,Overcast,230,2014-03-15 11:54:00
8:54 AM,50.0,27.0,41,29.84,10.0,WSW,11.5,-,0.00,Rain,Light Rain,240,2014-03-15 12:54:00
9:54 AM,52.0,27.0,38,29.84,10.0,WSW,11.5,16.1,0.00,,Overcast,240,2014-03-15 13:54:00
10:54 AM,55.0,28.0,35,29.84,10.0,WSW,16.1,23.0,N/A,,Mostly Cloudy,240,2014-03-15 14:54:00
11:54 AM,57.9,28.9,33,29.84,10.0,WSW,17.3,27.6,N/A,,Partly Cloudy,250,2014-03-15 15:54:00
12:54 PM,59.0,28.0,31,29.84,10.0,WSW,19.6,29.9,N/A,,Scattered Clouds,250,2014-03-15 16:54:00
1:54 PM,57.9,28.9,33,29.83,10.0,West,10.4,23.0,N/A,,Mostly Cloudy,280,2014-03-15 17:54:00
2:54 PM,60.1,27.0,28,29.82,10.0,West,16.1,32.2,N/A,,Clear,260,2014-03-15 18:54:00
3:54 PM,60.1,25.0,26,29.83,10.0,West,12.7,25.3,N/A,,Scattered Clouds,280,2014-03-15 19:54:00
4:54 PM,60.1,21.9,23,29.85,10.0,West,20.7,32.2,N/A,,Clear,280,2014-03-15 20:54:00
5:54 PM,57.9,21.9,25,29.87,10.0,WNW,11.5,21.9,N/A,,Clear,290,2014-03-15 21:54:00
6:54 PM,55.9,23.0,28,29.91,10.0,WNW,9.2,-,N/A,,Clear,300,2014-03-15 22:54:00
7:54 PM,53.1,21.9,30,29.95,10.0,NW,6.9,-,N/A,,Clear,310,2014-03-15 23:54:00
8:54 PM,51.1,21.9,32,29.98,10.0,NW,8.1,-,N/A,,Clear,320,2014-03-16 00:54:00
9:54 PM,48.9,21.9,35,30.01,10.0,NW,11.5,-,N/A,,Clear,320,2014-03-16 01:54:00
10:54 PM,48.0,21.9,36,30.02,10.0,NW,6.9,-,N/A,,Clear,310,2014-03-16 02:54:00
11:54 PM,45.0,21.9,40,30.03,10.0,NW,5.8,-,N/A,,Clear,320,2014-03-16 03:54:00